Location: Aufkirchen
(47.9603°N, 11.3653°E)
Time: 07:05:14
(UTC+01:00)

Tiros 1 - Visible Passes

Search period start: 27 November 2020 00:00
Search period end: 07 December 2020 00:00
Orbit: 630 x 664 km, 48.4° (Epoch: 26 November)

Date Brightness Start Highest point End Pass type
(mag) Time Alt. Az. Time Alt. Az. Time Alt. Az.
27 Nov 7.5 17:03:11 10° WSW 17:07:55 63° SSE 17:12:38 10° ENE visible
27 Nov 7.0 18:45:19 10° W 18:50:08 84° N 18:50:29 76° ENE visible
27 Nov 10.1 20:27:37 10° WNW 20:28:08 13° W 20:28:08 13° W visible
28 Nov 7.2 17:29:05 10° WSW 17:33:54 85° SSE 17:37:41 16° E visible
28 Nov 7.6 19:11:23 10° W 19:15:21 60° W 19:15:21 60° W visible
29 Nov 7.1 17:55:08 10° W 17:59:57 84° N 18:02:35 27° E visible
29 Nov 8.7 19:37:26 10° W 19:40:14 35° W 19:40:14 35° W visible
30 Nov 7.1 18:21:13 10° W 18:26:02 88° N 18:27:30 45° E visible
30 Nov 9.6 20:03:31 10° W 20:05:10 21° W 20:05:10 21° W visible
01 Dec 7.2 17:04:57 10° W 17:09:48 85° N 17:14:36 10° E visible
01 Dec 7.1 18:47:16 10° W 18:52:04 75° SSW 18:52:28 69° SSE visible
01 Dec 10.2 20:29:46 10° W 20:30:08 12° W 20:30:08 12° W visible
02 Dec 7.2 17:31:02 10° W 17:35:52 87° N 17:39:51 15° E visible
02 Dec 7.9 19:13:20 10° W 19:17:31 49° SW 19:17:31 49° SW visible
03 Dec 7.2 17:57:05 10° W 18:01:54 78° SSW 18:04:59 22° ESE visible
03 Dec 9.0 19:39:33 10° W 19:42:39 27° WSW 19:42:39 27° WSW visible
04 Dec 7.8 18:23:09 10° W 18:27:50 54° SSW 18:30:15 26° SE visible
04 Dec 9.9 20:06:20 10° W 20:07:57 15° WSW 20:07:57 15° WSW visible
05 Dec 7.3 17:06:55 10° W 17:11:44 80° SSW 17:16:32 10° ESE visible
05 Dec 8.7 18:49:20 10° W 18:53:37 32° SSW 18:55:41 23° S visible
06 Dec 7.8 17:32:58 10° W 17:37:41 56° SSW 17:42:22 10° SE visible
06 Dec 9.6 19:16:01 10° W 19:19:13 18° SW 19:21:21 14° S visible
